Gadsden, AL

6:13 AM CDT on September 18, 2019 (GMT -0500)
Gadsden Municipal

Weather History for KGAD - May, 2019

Change the Weather History Date:

Thursday, May 30, 2019

  Actual Average Record
Temperature  
Mean Temperature 76 °F -  
Max Temperature 89 °F 79 °F 96 °F (1937)
Min Temperature 63 °F 59 °F 53 °F (2000)
Cooling Degree Days 10    
Growing Degree Days 26 (Base 50)    
Moisture  
Dew Point 68 °F    
Average Humidity 80    
Maximum Humidity 100    
Minimum Humidity 48    
Precipitation  
Precipitation 0.00 in - - ()
Sea Level Pressure  
Sea Level Pressure 29.92 in    
Wind  
Wind Speed 4 mph ()    
Max Wind Speed 16 mph    
Max Gust Speed 21 mph    
Visibility 9.7 miles    
Events      
Averages and records for this station are not official NWS values.
T = Trace of Precipitation, MM = Missing Value Source: Averaged Metar Reports

Daily Weather History Graph

Daily Weather History Graph

Search for Another Location

Airport or City:

Astronomy

May. 30, 2019 Rise Set
Actual Time 5:34 AM CDT 7:49 PM CDT
Civil Twilight 5:06 AM CDT 8:17 PM CDT
Nautical Twilight 4:31 AM CDT 8:52 PM CDT
Astronomical Twilight 3:53 AM CDT 9:30 PM CDT
Moon 3:25 AM CDT (5/30) 4:09 PM CDT (5/30)
Length of Visible Light 15h 11m
Length of Day
14h 14m
Waning Crescent, 15% of the Moon is Illuminated
May 30
Waning Crescent
Jun 3
New
Jun 10
First Quarter
Jun 17
Full
Jun 25
Last Quarter

Hourly Weather History & Observations

Time (CDT) Temp. Heat Index Dew Point Humidity Pressure Visibility Wind Dir Wind Speed Gust Speed Precip Events Conditions
12:56 AM 66.0 °F - 66.0 °F 100% 29.92 in 10.0 mi Calm Calm - N/A   Clear
1:56 AM 64.9 °F - 64.9 °F 100% 29.91 in 10.0 mi West 3.5 mph - N/A   Clear
2:56 AM 64.0 °F - 64.0 °F 100% 29.93 in 10.0 mi Calm Calm - N/A   Clear
3:56 AM 63.0 °F - 63.0 °F 100% 29.94 in 9.0 mi Calm Calm - N/A   Clear
4:56 AM 64.0 °F - 64.0 °F 100% 29.95 in 10.0 mi West 3.5 mph - N/A   Clear
5:56 AM 63.0 °F - 63.0 °F 100% 29.96 in 8.0 mi Calm Calm - N/A   Clear
6:56 AM 64.9 °F - 64.9 °F 100% 29.96 in 10.0 mi Calm Calm - N/A   Clear
7:56 AM 73.9 °F - 71.1 °F 91% 29.94 in 10.0 mi Calm Calm - N/A   Clear
8:56 AM 79.0 °F - 71.1 °F 77% 29.94 in 10.0 mi SSW 10.4 mph - N/A   Clear
9:56 AM 80.1 °F 83.6 °F 71.1 °F 74% 29.95 in 10.0 mi SW 10.4 mph - N/A   Partly Cloudy
10:56 AM 82.9 °F 87.5 °F 71.1 °F 67% 29.95 in 10.0 mi SW 9.2 mph - N/A   Partly Cloudy
11:56 AM 82.9 °F 88.0 °F 72.0 °F 69% 29.95 in 10.0 mi Variable 6.9 mph - N/A   Mostly Cloudy
12:56 PM 87.1 °F 89.9 °F 66.9 °F 51% 29.93 in 10.0 mi WSW 16.1 mph 20.7 mph N/A   Partly Cloudy
1:56 PM 88.0 °F 90.3 °F 66.0 °F 48% 29.92 in 10.0 mi WSW 15.0 mph - N/A   Clear
2:56 PM 88.0 °F 90.7 °F 66.9 °F 49% 29.91 in 10.0 mi WSW 11.5 mph - N/A   Mostly Cloudy
3:56 PM 88.0 °F 90.7 °F 66.9 °F 49% 29.89 in 10.0 mi WSW 10.4 mph - N/A   Clear
5:56 PM 86.0 °F 88.8 °F 66.9 °F 53% 29.88 in 10.0 mi WSW 8.1 mph - N/A   Clear
6:56 PM 82.9 °F 85.8 °F 68.0 °F 60% 29.89 in 10.0 mi WSW 4.6 mph - N/A   Clear
7:56 PM 80.1 °F 83.2 °F 70.0 °F 71% 29.89 in 10.0 mi Calm Calm - N/A   Clear
8:56 PM 75.0 °F - 72.0 °F 90% 29.89 in 10.0 mi Calm Calm - N/A   Clear
9:56 PM 72.0 °F - 70.0 °F 93% 29.92 in 10.0 mi SSW 3.5 mph - N/A   Clear
10:56 PM 72.0 °F - 70.0 °F 93% 29.91 in 5.0 mi Calm Calm - N/A   Clear
11:56 PM 71.1 °F - 70.0 °F 96% 29.92 in 10.0 mi Calm Calm - N/A   Mostly Cloudy